This is the latest recevied weather packets stored in our database for station/object WE1C. If no packets are shown the sender has not sent any weather packets the latest 10 day(s).
| Time | Temp. | Humidity | Pressure | Rain* | Wind** | Luminosity | Snow |
|---|---|---|---|---|---|---|---|
| 1777856616 | 3.89° C | 64% | 1038.4 hPa | 0 mm | - | 0 W/m² | - |
| 1777856313 | 3.89° C | 64% | 1038.1 hPa | 0 mm | - | 0 W/m² | - |
| 1777856010 | 3.89° C | 62% | 1038.3 hPa | 0 mm | - | 0 W/m² | - |
| 1777855708 | 4.44° C | 62% | 1038.1 hPa | 0 mm | - | 0 W/m² | - |
| 1777855405 | 5° C | 61% | 1037.9 hPa | 0 mm | - | 0 W/m² | - |
| 1777855101 | 5° C | 61% | 1038 hPa | 0 mm | - | 0 W/m² | - |
| 1777854799 | 5° C | 60% | 1038 hPa | 0 mm | - | 0 W/m² | - |
| 1777854495 | 5.56° C | 58% | 1038.1 hPa | 0 mm | - | 0 W/m² | - |
| 1777854192 | 6.11° C | 59% | 1038 hPa | 0 mm | - | 0 W/m² | - |
| 1777853890 | 6.11° C | 54% | 1038 hPa | 0 mm | - | 0 W/m² | - |
| 1777853587 | 6.11° C | 54% | 1037.7 hPa | 0 mm | - | 0 W/m² | - |
| 1777853284 | 6.67° C | 53% | 1037.7 hPa | 0 mm | - | 0 W/m² | - |
| 1777852981 | 6.67° C | 53% | 1038 hPa | 0 mm | - | 0 W/m² | - |
| 1777852679 | 7.22° C | 52% | 1037.7 hPa | 0 mm | - | 0 W/m² | - |
| 1777852376 | 7.78° C | 51% | 1037.8 hPa | 0 mm | - | 0 W/m² | - |
| 1777852073 | 7.78° C | 50% | 1037.6 hPa | 0 mm | - | 2 W/m² | - |
| 1777851771 | 7.78° C | 50% | 1037.6 hPa | 0 mm | - | 4 W/m² | - |
| 1777851468 | 8.33° C | 48% | 1037.6 hPa | 0 mm | - | 6 W/m² | - |
| 1777851164 | 8.33° C | 48% | 1037.6 hPa | 0 mm | - | 10 W/m² | - |
| 1777850861 | 8.33° C | 51% | 1037.6 hPa | 0 mm | - | 13 W/m² | - |
| 1777850558 | 8.89° C | 45% | 1037.6 hPa | 0 mm | - | 15 W/m² | - |
| 1777850256 | 8.89° C | 46% | 1037.3 hPa | 0 mm | - | 18 W/m² | - |
| 1777849953 | 8.89° C | 49% | 1037.5 hPa | 0 mm | - | 23 W/m² | - |
| 1777849648 | 8.89° C | 46% | 1037.2 hPa | 0 mm | - | 29 W/m² | - |
| 1777849346 | 9.44° C | 45% | 1037.2 hPa | 0 mm | - | 25 W/m² | - |
* Rain latest hour (hover to see other rain measurements)
** Current wind speed in m/s (hover to see current wind gust speed)